Regional Weather Roundup
Issued by NWS

Home | Current Version | Previous Version | Graphics & Text | Print | Product List | Glossary On
Versions: 1 2 3 4 5 6 7 8 9 10 11 12 13 14 15 16 17 18 19 20 21 22 23 24 25 26 27 28 29 30 31 32 33 34 35 36 37 38 39 40 41 42 43 44 45 46 47 48 49 50
000
ASUS43 KLMK 260310
RWRKY
KENTUCKY REGIONAL WEATHER ROUNDUP
NATIONAL WEATHER SERVICE LOUISVILLE KY
1000 PM EST SAT FEB 25 2017

NOTE "FAIR" INDICATES FEW OR NO CLOUDS BELOW 12,000 FEET
WITH NO SIGNIFICANT WEATHER AND/OR OBSTRUCTIONS TO VISIBILITY.

KYZ001>023-026-027-061>063-070>075-260400-
WESTERN AND SOUTH CENTRAL KENTUCKY

CITY           SKY/WX    TMP DP  RH WIND       PRES   REMARKS
PADUCAH        CLEAR     27  19  72 CALM      30.14R
HENDERSON      CLEAR     27  18  69 CALM      30.14R
OWENSBORO      CLEAR     31  21  66 SW3       30.14R
HOPKINSVILLE   CLEAR     35  19  52 W5        30.13R WCI  31
BOWLING GREEN  CLEAR     35  18  49 CALM      30.14R
GLASGOW        CLEAR     31  20  64 CALM      30.13R
$$

KYZ024-025-028>034-038-045-046-053-260400-
NORTH CENTRAL KENTUCKY

CITY           SKY/WX    TMP DP  RH WIND       PRES   REMARKS
LOUISVILLE/SDF CLEAR     33  16  49 W9        30.11R WCI  25
LOUISVILLE/LOU CLEAR     33  17  51 W6        30.11R WCI  28
FORT KNOX      CLEAR     28  17  64 W3        30.09R
$$

KYZ035>037-039>044-047>052-055>060-089>105-260400-
NORTHEAST KENTUCKY

CITY           SKY/WX    TMP DP  RH WIND       PRES   REMARKS
LEXINGTON      CLOUDY    33  19  56 NW9       30.08R WCI  25
COVINGTON      PTCLDY    29  16  58 SW5       30.04S WCI  24
FRANKFORT      MOCLDY    32  17  54 W3        30.08R
$$

KYZ054-064>069-076>088-106>120-260400-
SOUTHEAST KENTUCKY

CITY           SKY/WX    TMP DP  RH WIND       PRES   REMARKS
JACKSON        MOCLDY    30  19  63 CALM      30.06R
LONDON         CLEAR     32  18  56 CALM      30.09R
SOMERSET       CLEAR     30  19  64 CALM      30.13R
MIDDLESBORO    CLEAR     35  20  56 NW5       30.11R WCI  30
MONTICELLO     CLEAR     27  22  81 VRB7      30.13R WCI  19
$$




USA.gov is the U.S. government's official web portal to all federal, state and local government web resources and services.